DW7584 Weather Reports


Display with metric or nautical units.
time (UTC)temp
F
wind
direction
speed
MPH
gust
MPH
rain 1hr
in
rain 24hr
in
rain mn
in
humidity
%
barometer
mb
20260509084015 46 0.0 1.0 0.00 0.00 0.00 75 999.8
20260509083015 45 0.0 1.0 0.00 0.00 0.00 77 1000.0
20260509082016 45 0.0 0.0 0.00 0.00 0.00 76 999.8
20260509081017 45 0.0 1.0 0.00 0.00 0.00 76 1000.1
20260509080018 47 248 1.0 2.0 0.00 0.00 0.00 71 1000.2
20260509075017 48 270 1.0 3.0 0.00 0.00 0.00 71 1000.2
20260509074017 48 270 1.0 4.0 0.00 0.00 0.00 71 1000.4
20260509073038 49 293 2.0 3.0 0.00 0.00 0.00 68 1000.5
20260509072017 50 293 3.0 7.0 0.00 0.00 0.00 65 1000.6
20260509071017 49 293 3.0 5.0 0.00 0.00 0.00 66 1000.8
20260509070038 50 270 1.0 3.0 0.00 0.00 0.00 65 1001.0
20260509065021 52 270 3.0 6.0 0.00 0.00 0.00 60 1001.0
20260509064039 53 270 4.0 10.0 0.00 0.00 0.00 58 1001.1
20260509063018 53 315 4.0 11.0 0.00 0.00 0.00 57 1001.2
20260509062037 54 293 4.0 7.0 0.00 0.00 0.00 54 1001.5
20260509061017 55 90 4.0 16.0 0.00 0.00 0.00 54 1001.7
20260509060017 56 270 4.0 9.0 0.00 0.00 0.00 54 1002.2
20260509055039 58 315 5.0 12.0 0.00 0.00 0.00 49 1002.0
20260509054018 60 225 2.0 10.0 0.00 0.00 0.00 47 1002.2
20260509053017 57 225 4.0 13.0 0.00 0.00 0.00 48 1002.3
20260509052037 55 225 1.0 4.0 0.00 0.00 0.00 54 1002.8
20260509051017 56 90 1.0 2.0 0.00 0.00 0.00 51 1002.8
20260509050057 57 0.0 2.0 0.00 0.00 0.00 50 1002.9
20260509045017 57 0.0 1.0 0.00 0.00 0.00 49 1003.2
20260509044019 57 315 1.0 2.0 0.00 0.00 0.00 54 1003.2
20260509043019 58 0.0 0.0 0.00 0.00 0.00 47 1003.3
20260509042038 58 225 2.0 10.0 0.00 0.00 0.00 47 1003.3
20260509041019 56 225 2.0 6.0 0.00 0.00 0.00 52 1004.0
20260509040017 57 90 2.0 5.0 0.00 0.00 0.00 45 1003.6
20260509035017 55 293 4.0 14.0 0.00 0.00 0.00 50 1003.9
20260509034017 53 0.0 4.0 0.00 0.00 0.00 60 1004.2
20260509033017 52 270 1.0 2.0 0.00 0.00 0.00 58 1004.1
20260509032017 52 0.0 1.0 0.00 0.00 0.00 55 1004.1
20260509031038 53 0.0 0.0 0.00 0.00 0.00 57 1004.1
20260509030017 53 0.0 0.0 0.00 0.00 0.00 51 1004.1
20260509025017 55 0.0 0.0 0.00 0.00 0.00 45 1004.1
20260509024018 55 0.0 1.0 0.00 0.00 0.00 47 1004.2
20260509023017 56 0.0 1.0 0.00 0.00 0.00 47 1004.1
20260509022017 57 0.0 1.0 0.00 0.00 0.00 48 1004.4
20260509021037 56 0.0 0.0 0.00 0.00 0.00 46 1004.3
20260509020017 57 0.0 1.0 0.00 0.00 0.00 51 1004.4
20260509015017 59 0.0 1.0 0.00 0.00 0.00 41 1004.4
20260509014037 59 225 2.0 3.0 0.00 0.00 0.00 45 1004.7
20260509013017 59 248 3.0 6.0 0.00 0.00 0.00 41 1004.5
20260509012018 60 248 3.0 5.0 0.00 0.00 0.00 42 1004.7
20260509011059 59 270 1.0 2.0 0.00 0.00 0.00 43 1004.4
20260509010017 61 248 1.0 3.0 0.00 0.00 0.00 40 1004.5
20260509005017 60 270 1.0 5.0 0.00 0.00 0.00 41 1004.7
20260509004018 60 225 6.0 8.0 0.00 0.00 0.00 41 1004.6
20260509003018 61 203 3.0 8.0 0.00 0.00 0.00 43 1004.5
20260509002037 60 270 3.0 5.0 0.00 0.00 0.00 49 1004.4
20260509001017 62 0.0 1.0 0.00 0.00 0.00 37 1004.3
20260509000017 62 0.0 2.0 0.00 0.00 0.00 36 1004.1
20260508235016 62 0.0 1.0 0.00 0.00 0.00 40 1004.2
20260508234017 63 0.0 2.0 0.00 0.00 0.00 37 1004.3
20260508233038 63 203 1.0 3.0 0.00 0.00 0.00 35 1004.3
20260508232017 63 225 4.0 7.0 0.00 0.00 0.00 34 1004.5
20260508231017 64 225 6.0 8.0 0.00 0.00 0.00 33 1004.7
20260508230037 64 248 6.0 8.0 0.00 0.00 0.00 34 1004.5
20260508225017 64 225 6.0 9.0 0.00 0.00 0.00 34 1004.6
20260508224017 64 225 7.0 10.0 0.00 0.00 0.00 34 1004.8
20260508223037 64 225 6.0 10.0 0.00 0.00 0.00 33 1004.9
20260508222017 64 225 8.0 14.0 0.00 0.00 0.00 33 1004.9
20260508221017 64 248 8.0 11.0 0.00 0.00 0.00 33 1005.2
20260508220037 64 248 9.0 12.0 0.00 0.00 0.00 34 1005.2
20260508215017 64 248 9.0 13.0 0.00 0.00 0.00 32 1005.3
20260508214017 63 225 11.0 17.0 0.00 0.00 0.00 33 1005.5
20260508213017 63 248 13.0 18.0 0.00 0.00 0.00 31 1005.5
20260508212017 64 225 9.0 14.0 0.00 0.00 0.00 35 1005.5
20260508211017 64 248 10.0 20.0 0.00 0.00 0.00 30 1005.7
20260508210037 64 225 6.0 11.0 0.00 0.00 0.00 32 1005.8
20260508205016 64 248 8.0 16.0 0.00 0.00 0.00 35 1005.7
20260508204016 64 248 11.0 16.0 0.00 0.00 0.00 32 1005.9
20260508203017 64 248 10.0 14.0 0.00 0.00 0.00 32 1006.0
20260508202057 64 270 12.0 17.0 0.00 0.00 0.00 34 1006.3
20260508201017 64 248 11.0 16.0 0.00 0.00 0.00 32 1006.2
20260508200017 64 225 6.0 17.0 0.00 0.00 0.00 35 1006.3
20260508195016 64 225 6.0 15.0 0.00 0.00 0.00 34 1006.5
20260508194017 64 225 6.0 14.0 0.00 0.00 0.00 34 1006.7
20260508193017 63 248 12.0 16.0 0.00 0.00 0.00 31 1006.6
20260508192017 63 248 13.0 18.0 0.00 0.00 0.00 32 1006.7
20260508191017 63 225 12.0 18.0 0.00 0.00 0.00 32 1006.9
20260508190017 63 248 12.0 17.0 0.00 0.00 0.00 35 1007.0
20260508185016 65 248 10.0 15.0 0.00 0.00 0.00 38 1007.2
20260508184016 63 248 11.0 16.0 0.00 0.00 0.00 35 1007.2
20260508183036 64 225 12.0 18.0 0.00 0.00 0.00 35 1007.4
20260508182016 64 225 11.0 14.0 0.00 0.00 0.00 34 1007.6
20260508181016 63 225 12.0 18.0 0.00 0.00 0.00 36 1007.8
20260508180016 63 248 13.0 18.0 0.00 0.00 0.00 35 1008.0
20260508175016 64 225 9.0 14.0 0.00 0.00 0.00 37 1008.1
20260508174016 63 225 9.0 13.0 0.00 0.00 0.00 35 1008.4
20260508173019 62 225 13.0 20.0 0.00 0.00 0.00 36 1008.5
20260508172016 62 248 11.0 17.0 0.00 0.00 0.00 36 1008.6
20260508171017 63 225 6.0 13.0 0.00 0.00 0.00 35 1008.8
20260508170016 62 225 9.0 16.0 0.00 0.00 0.00 37 1009.0
20260508165017 62 225 8.0 13.0 0.00 0.00 0.00 35 1009.1
20260508164016 61 203 6.0 13.0 0.00 0.00 0.00 37 1009.2
20260508163016 60 248 9.0 15.0 0.00 0.00 0.00 38 1009.4
20260508162016 60 225 8.0 13.0 0.00 0.00 0.00 39 1009.5
20260508161038 60 225 9.0 13.0 0.00 0.00 0.00 43 1009.6
20260508160016 59 225 11.0 15.0 0.00 0.00 0.00 39 1009.7
20260508155016 59 225 10.0 14.0 0.00 0.00 0.00 41 1009.8
20260508154016 59 248 10.0 14.0 0.00 0.00 0.00 39 1009.9
20260508153016 58 225 9.0 15.0 0.00 0.00 0.00 41 1010.0
20260508152016 58 203 6.0 15.0 0.00 0.00 0.00 42 1010.0
20260508151016 58 248 10.0 14.0 0.00 0.00 0.00 42 1010.1
20260508150056 58 203 4.0 11.0 0.00 0.00 0.00 47 1010.3
20260508145016 57 203 5.0 12.0 0.00 0.00 0.00 47 1010.3
20260508144056 56 225 9.0 13.0 0.00 0.00 0.00 51 1010.3
20260508143016 55 225 6.0 12.0 0.00 0.00 0.00 51 1010.5
20260508142016 54 225 7.0 13.0 0.00 0.00 0.00 51 1010.5
20260508141016 54 225 6.0 13.0 0.00 0.00 0.00 54 1010.6
20260508140016 53 225 5.0 13.0 0.00 0.00 0.00 55 1010.7
20260508135016 52 203 4.0 10.0 0.00 0.00 0.00 58 1010.7
20260508134016 52 203 3.0 11.0 0.00 0.00 0.00 57 1010.7
20260508133016 50 203 4.0 10.0 0.00 0.00 0.00 62 1010.6
20260508132016 49 225 4.0 11.0 0.00 0.00 0.00 64 1010.8
20260508131016 48 225 5.0 10.0 0.00 0.00 0.00 66 1010.9
20260508130057 47 225 6.0 10.0 0.00 0.00 0.00 68 1010.8
20260508125017 46 203 2.0 6.0 0.00 0.00 0.00 71 1011.0
20260508124016 45 225 4.0 9.0 0.00 0.00 0.00 71 1010.9
20260508123016 45 203 2.0 5.0 0.00 0.00 0.00 74 1010.9
20260508122016 44 203 2.0 7.0 0.00 0.00 0.00 75 1010.8
20260508121016 43 225 2.0 5.0 0.00 0.00 0.00 76 1010.8
20260508120016 42 225 2.0 5.0 0.00 0.00 0.00 76 1010.7
20260508115016 41 203 1.0 5.0 0.00 0.00 0.00 77 1010.6
20260508114016 40 203 1.0 4.0 0.00 0.00 0.00 80 1010.5
20260508113016 38 203 3.0 5.0 0.00 0.00 0.00 81 1010.4
20260508112037 37 203 2.0 4.0 0.00 0.00 0.00 82 1010.3
20260508111016 36 203 1.0 3.0 0.00 0.00 0.00 83 1010.2
20260508110016 36 203 1.0 2.0 0.00 0.00 0.00 84 1010.2
20260508105016 35 0.0 1.0 0.00 0.00 0.00 84 1010.2
20260508104015 35 0.0 2.0 0.00 0.00 0.00 84 1010.0
20260508103016 35 203 2.0 4.0 0.00 0.00 0.00 83 1010.3
20260508102016 36 203 1.0 3.0 0.00 0.00 0.00 83 1010.3
20260508101016 36 203 1.0 3.0 0.00 0.00 0.00 82 1010.4
20260508100016 36 203 1.0 3.0 0.00 0.00 0.00 83 1010.3
20260508095015 36 0.0 2.0 0.00 0.00 0.00 83 1010.4
20260508094037 36 203 2.0 4.0 0.00 0.00 0.00 83 1010.6
20260508093115 35 203 1.0 3.0 0.00 0.00 0.00 84 1010.4
20260508092536 35 203 2.0 4.0 0.00 0.00 0.00 84 1010.3
20260508091515 35 0.0 1.0 0.00 0.00 0.00 83 1010.4
20260508090515 35 225 2.0 3.0 0.00 0.00 0.00 83 1010.5
20260508085516 37 0.0 1.0 0.00 0.00 0.00 82 1010.5